# Tabular Observed and Forecast Hydrograph Information
#
# Location: Klamath River - Below JC Boyle Power Plant (BOYO3)
#
# File Generation Time: 09/03/2026 at 07:14 AM PDT
# Data Interval: 1 Hour
#
# Most Recent Date & Time of Maximum Observed: 08/29/2026 at 09:00 AM PDT
# Maximum Observed Stage: 5.00 Feet
# Maximum Observed Flow: 1904 cfs
#
# Earliest Date & Time of Maximum Forecast: 09/08/2026 at 05:00 AM PDT
# Maximum Forecast Stage: 3.96 Feet
# Maximum Forecast Flow: 966 cfs
#
# OBSERVED
#
# Date & Time (Local) Stage (Feet) Flow (cfs) Trend Observed Status
# ---------------------------------------------------------------------------------
08/29/2026 07 AM PDT 4.99 1893 Not Applicable
08/29/2026 08 AM PDT 4.99 1893 0 Not Applicable
08/29/2026 09 AM PDT 5.00 1904 + Not Applicable
08/29/2026 10 AM PDT 4.98 1881 - Not Applicable
08/29/2026 11 AM PDT 4.93 1825 - Not Applicable
08/29/2026 12 PM PDT 4.94 1836 + Not Applicable
08/29/2026 01 PM PDT 4.93 1825 - Not Applicable
08/29/2026 02 PM PDT 4.93 1825 0 Not Applicable
08/29/2026 03 PM PDT 4.93 1825 0 Not Applicable
08/29/2026 04 PM PDT 4.85 1738 - Not Applicable
08/29/2026 05 PM PDT 4.81 1695 - Not Applicable
08/29/2026 06 PM PDT 4.80 1684 - Not Applicable
08/29/2026 07 PM PDT 4.80 1684 0 Not Applicable
08/29/2026 08 PM PDT 4.80 1684 0 Not Applicable
08/29/2026 09 PM PDT 4.78 1663 - Not Applicable
08/29/2026 10 PM PDT 4.77 1652 - Not Applicable
08/29/2026 11 PM PDT 4.74 1621 - Not Applicable
08/30/2026 12 AM PDT 4.74 1621 0 Not Applicable
08/30/2026 01 AM PDT 4.75 1632 + Not Applicable
08/30/2026 02 AM PDT 4.74 1621 - Not Applicable
08/30/2026 03 AM PDT 4.74 1621 0 Not Applicable
08/30/2026 04 AM PDT 4.70 1580 - Not Applicable
08/30/2026 05 AM PDT 4.69 1571 - Not Applicable
08/30/2026 06 AM PDT 4.68 1561 - Not Applicable
08/30/2026 07 AM PDT 4.68 1561 0 Not Applicable
08/30/2026 08 AM PDT 4.68 1561 0 Not Applicable
08/30/2026 09 AM PDT 4.69 1571 + Not Applicable
08/30/2026 10 AM PDT 4.64 1524 - Not Applicable
08/30/2026 11 AM PDT 4.63 1515 - Not Applicable
08/30/2026 12 PM PDT 4.62 1506 - Not Applicable
08/30/2026 01 PM PDT 4.61 1497 - Not Applicable
08/30/2026 02 PM PDT 4.62 1506 + Not Applicable
08/30/2026 03 PM PDT 4.62 1506 0 Not Applicable
08/30/2026 04 PM PDT 4.59 1478 - Not Applicable
08/30/2026 05 PM PDT 4.57 1460 - Not Applicable
08/30/2026 06 PM PDT 4.56 1451 - Not Applicable
08/30/2026 07 PM PDT 4.53 1425 - Not Applicable
08/30/2026 08 PM PDT 4.50 1398 - Not Applicable
08/30/2026 09 PM PDT 4.48 1380 - Not Applicable
08/30/2026 10 PM PDT 4.47 1372 - Not Applicable
08/30/2026 11 PM PDT 4.48 1380 + Not Applicable
08/31/2026 12 AM PDT 4.46 1363 - Not Applicable
08/31/2026 01 AM PDT 4.48 1380 + Not Applicable
08/31/2026 02 AM PDT 4.47 1372 - Not Applicable
08/31/2026 03 AM PDT 4.47 1372 0 Not Applicable
08/31/2026 04 AM PDT 4.48 1380 + Not Applicable
08/31/2026 05 AM PDT 4.48 1380 0 Not Applicable
08/31/2026 06 AM PDT 4.47 1372 - Not Applicable
08/31/2026 07 AM PDT 4.47 1372 0 Not Applicable
08/31/2026 08 AM PDT 4.47 1372 0 Not Applicable
08/31/2026 09 AM PDT 4.47 1372 0 Not Applicable
08/31/2026 10 AM PDT 4.47 1372 0 Not Applicable
08/31/2026 11 AM PDT 4.46 1363 - Not Applicable
08/31/2026 12 PM PDT 4.46 1363 0 Not Applicable
08/31/2026 01 PM PDT 4.45 1354 - Not Applicable
08/31/2026 02 PM PDT 4.44 1346 - Not Applicable
08/31/2026 03 PM PDT 4.45 1354 + Not Applicable
08/31/2026 04 PM PDT 4.45 1354 0 Not Applicable
08/31/2026 05 PM PDT 4.44 1346 - Not Applicable
08/31/2026 06 PM PDT 4.40 1312 - Not Applicable
08/31/2026 07 PM PDT 4.37 1286 - Not Applicable
08/31/2026 08 PM PDT 4.34 1261 - Not Applicable
08/31/2026 09 PM PDT 4.32 1245 - Not Applicable
08/31/2026 10 PM PDT 4.31 1236 - Not Applicable
08/31/2026 11 PM PDT 4.30 1228 - Not Applicable
09/01/2026 12 AM PDT 4.30 1228 0 Not Applicable
09/01/2026 01 AM PDT 4.31 1236 + Not Applicable
09/01/2026 02 AM PDT 4.30 1228 - Not Applicable
09/01/2026 03 AM PDT 4.30 1228 0 Not Applicable
09/01/2026 04 AM PDT 4.28 1212 - Not Applicable
09/01/2026 05 AM PDT 4.29 1220 + Not Applicable
09/01/2026 06 AM PDT 4.28 1212 - Not Applicable
09/01/2026 07 AM PDT 4.28 1212 0 Not Applicable
09/01/2026 08 AM PDT 4.28 1212 0 Not Applicable
09/01/2026 09 AM PDT 4.29 1220 + Not Applicable
09/01/2026 10 AM PDT 4.28 1212 - Not Applicable
09/01/2026 11 AM PDT 4.28 1212 0 Not Applicable
09/01/2026 12 PM PDT 4.29 1220 + Not Applicable
09/01/2026 01 PM PDT 4.29 1220 0 Not Applicable
09/01/2026 02 PM PDT 4.30 1228 + Not Applicable
09/01/2026 03 PM PDT 4.30 1228 0 Not Applicable
09/01/2026 04 PM PDT 4.28 1212 - Not Applicable
09/01/2026 05 PM PDT 4.25 1187 - Not Applicable
09/01/2026 06 PM PDT 4.22 1163 - Not Applicable
09/01/2026 07 PM PDT 4.19 1140 - Not Applicable
09/01/2026 08 PM PDT 4.18 1132 - Not Applicable
09/01/2026 09 PM PDT 4.14 1101 - Not Applicable
09/01/2026 10 PM PDT 4.11 1078 - Not Applicable
09/01/2026 11 PM PDT 4.11 1078 0 Not Applicable
09/02/2026 12 AM PDT 4.11 1078 0 Not Applicable
09/02/2026 01 AM PDT 4.11 1078 0 Not Applicable
09/02/2026 02 AM PDT 4.11 1078 0 Not Applicable
09/02/2026 03 AM PDT 4.11 1078 0 Not Applicable
09/02/2026 04 AM PDT 4.11 1078 0 Not Applicable
09/02/2026 05 AM PDT 4.11 1078 0 Not Applicable
09/02/2026 06 AM PDT 4.11 1078 0 Not Applicable
09/02/2026 07 AM PDT 4.11 1078 0 Not Applicable
09/02/2026 08 AM PDT 4.11 1078 0 Not Applicable
09/02/2026 09 AM PDT 4.11 1078 0 Not Applicable
09/02/2026 10 AM PDT 4.11 1078 0 Not Applicable
09/02/2026 11 AM PDT 4.11 1078 0 Not Applicable
09/02/2026 12 PM PDT 4.11 1078 0 Not Applicable
09/02/2026 01 PM PDT 4.11 1078 0 Not Applicable
09/02/2026 02 PM PDT 4.11 1078 0 Not Applicable
09/02/2026 03 PM PDT 4.10 1070 - Not Applicable
09/02/2026 04 PM PDT 4.10 1070 0 Not Applicable
09/02/2026 05 PM PDT 4.07 1047 - Not Applicable
09/02/2026 06 PM PDT 4.06 1040 - Not Applicable
09/02/2026 07 PM PDT 4.02 1010 - Not Applicable
09/02/2026 08 PM PDT 4.00 996 - Not Applicable
09/02/2026 09 PM PDT 3.96 966 - Not Applicable
09/02/2026 10 PM PDT 3.93 944 - Not Applicable
09/02/2026 11 PM PDT 3.93 944 0 Not Applicable
09/03/2026 12 AM PDT 3.93 944 0 Not Applicable
09/03/2026 01 AM PDT 3.93 944 0 Not Applicable
09/03/2026 02 AM PDT 3.93 944 0 Not Applicable
09/03/2026 03 AM PDT 3.92 937 - Not Applicable
09/03/2026 04 AM PDT 3.92 937 0 Not Applicable
09/03/2026 05 AM PDT 3.93 944 + Not Applicable
09/03/2026 06 AM PDT 3.93 944 0 Not Applicable
#
# FORECAST
#
# Date & Time (Local) Stage (Feet) Flow (cfs) Trend Forecast Status
# ---------------------------------------------------------------------------------
09/03/2026 07 AM PDT 3.93 944 Not Applicable
09/03/2026 08 AM PDT 3.92 937 - Not Applicable
09/03/2026 09 AM PDT 3.92 937 0 Not Applicable
09/03/2026 10 AM PDT 3.91 930 - Not Applicable
09/03/2026 11 AM PDT 3.91 930 0 Not Applicable
09/03/2026 12 PM PDT 3.90 923 - Not Applicable
09/03/2026 01 PM PDT 3.90 923 0 Not Applicable
09/03/2026 02 PM PDT 3.90 923 0 Not Applicable
09/03/2026 03 PM PDT 3.89 916 - Not Applicable
09/03/2026 04 PM PDT 3.89 916 0 Not Applicable
09/03/2026 05 PM PDT 3.89 916 0 Not Applicable
09/03/2026 06 PM PDT 3.90 923 + Not Applicable
09/03/2026 07 PM PDT 3.90 923 0 Not Applicable
09/03/2026 08 PM PDT 3.90 923 0 Not Applicable
09/03/2026 09 PM PDT 3.90 923 0 Not Applicable
09/03/2026 10 PM PDT 3.90 923 0 Not Applicable
09/03/2026 11 PM PDT 3.90 923 0 Not Applicable
09/04/2026 12 AM PDT 3.91 930 + Not Applicable
09/04/2026 01 AM PDT 3.91 930 0 Not Applicable
09/04/2026 02 AM PDT 3.91 930 0 Not Applicable
09/04/2026 03 AM PDT 3.91 930 0 Not Applicable
09/04/2026 04 AM PDT 3.91 930 0 Not Applicable
09/04/2026 05 AM PDT 3.90 923 - Not Applicable
09/04/2026 06 AM PDT 3.90 923 0 Not Applicable
09/04/2026 07 AM PDT 3.90 923 0 Not Applicable
09/04/2026 08 AM PDT 3.90 923 0 Not Applicable
09/04/2026 09 AM PDT 3.90 923 0 Not Applicable
09/04/2026 10 AM PDT 3.90 923 0 Not Applicable
09/04/2026 11 AM PDT 3.90 923 0 Not Applicable
09/04/2026 12 PM PDT 3.89 916 - Not Applicable
09/04/2026 01 PM PDT 3.89 916 0 Not Applicable
09/04/2026 02 PM PDT 3.89 916 0 Not Applicable
09/04/2026 03 PM PDT 3.89 916 0 Not Applicable
09/04/2026 04 PM PDT 3.89 916 0 Not Applicable
09/04/2026 05 PM PDT 3.89 916 0 Not Applicable
09/04/2026 06 PM PDT 3.89 916 0 Not Applicable
09/04/2026 07 PM PDT 3.89 916 0 Not Applicable
09/04/2026 08 PM PDT 3.89 916 0 Not Applicable
09/04/2026 09 PM PDT 3.89 916 0 Not Applicable
09/04/2026 10 PM PDT 3.89 916 0 Not Applicable
09/04/2026 11 PM PDT 3.89 916 0 Not Applicable
09/05/2026 12 AM PDT 3.89 916 0 Not Applicable
09/05/2026 01 AM PDT 3.90 923 + Not Applicable
09/05/2026 02 AM PDT 3.90 923 0 Not Applicable
09/05/2026 03 AM PDT 3.90 923 0 Not Applicable
09/05/2026 04 AM PDT 3.90 923 0 Not Applicable
09/05/2026 05 AM PDT 3.90 923 0 Not Applicable
09/05/2026 06 AM PDT 3.90 923 0 Not Applicable
09/05/2026 07 AM PDT 3.90 923 0 Not Applicable
09/05/2026 08 AM PDT 3.90 923 0 Not Applicable
09/05/2026 09 AM PDT 3.90 923 0 Not Applicable
09/05/2026 10 AM PDT 3.90 923 0 Not Applicable
09/05/2026 11 AM PDT 3.90 923 0 Not Applicable
09/05/2026 12 PM PDT 3.90 923 0 Not Applicable
09/05/2026 01 PM PDT 3.90 923 0 Not Applicable
09/05/2026 02 PM PDT 3.90 923 0 Not Applicable
09/05/2026 03 PM PDT 3.90 923 0 Not Applicable
09/05/2026 04 PM PDT 3.90 923 0 Not Applicable
09/05/2026 05 PM PDT 3.90 923 0 Not Applicable
09/05/2026 06 PM PDT 3.90 923 0 Not Applicable
09/05/2026 07 PM PDT 3.90 923 0 Not Applicable
09/05/2026 08 PM PDT 3.90 923 0 Not Applicable
09/05/2026 09 PM PDT 3.90 923 0 Not Applicable
09/05/2026 10 PM PDT 3.91 930 + Not Applicable
09/05/2026 11 PM PDT 3.91 930 0 Not Applicable
09/06/2026 12 AM PDT 3.91 930 0 Not Applicable
09/06/2026 01 AM PDT 3.91 930 0 Not Applicable
09/06/2026 02 AM PDT 3.91 930 0 Not Applicable
09/06/2026 03 AM PDT 3.92 937 + Not Applicable
09/06/2026 04 AM PDT 3.92 937 0 Not Applicable
09/06/2026 05 AM PDT 3.92 937 0 Not Applicable
09/06/2026 06 AM PDT 3.92 937 0 Not Applicable
09/06/2026 07 AM PDT 3.92 937 0 Not Applicable
09/06/2026 08 AM PDT 3.92 937 0 Not Applicable
09/06/2026 09 AM PDT 3.92 937 0 Not Applicable
09/06/2026 10 AM PDT 3.92 937 0 Not Applicable
09/06/2026 11 AM PDT 3.92 937 0 Not Applicable
09/06/2026 12 PM PDT 3.92 937 0 Not Applicable
09/06/2026 01 PM PDT 3.92 937 0 Not Applicable
09/06/2026 02 PM PDT 3.92 937 0 Not Applicable
09/06/2026 03 PM PDT 3.92 937 0 Not Applicable
09/06/2026 04 PM PDT 3.92 937 0 Not Applicable
09/06/2026 05 PM PDT 3.93 944 + Not Applicable
09/06/2026 06 PM PDT 3.93 944 0 Not Applicable
09/06/2026 07 PM PDT 3.93 944 0 Not Applicable
09/06/2026 08 PM PDT 3.93 944 0 Not Applicable
09/06/2026 09 PM PDT 3.94 951 + Not Applicable
09/06/2026 10 PM PDT 3.94 951 0 Not Applicable
09/06/2026 11 PM PDT 3.94 951 0 Not Applicable
09/07/2026 12 AM PDT 3.94 951 0 Not Applicable
09/07/2026 01 AM PDT 3.95 959 + Not Applicable
09/07/2026 02 AM PDT 3.95 959 0 Not Applicable
09/07/2026 03 AM PDT 3.95 959 0 Not Applicable
09/07/2026 04 AM PDT 3.95 959 0 Not Applicable
09/07/2026 05 AM PDT 3.95 959 0 Not Applicable
09/07/2026 06 AM PDT 3.95 959 0 Not Applicable
09/07/2026 07 AM PDT 3.95 959 0 Not Applicable
09/07/2026 08 AM PDT 3.95 959 0 Not Applicable
09/07/2026 09 AM PDT 3.95 959 0 Not Applicable
09/07/2026 10 AM PDT 3.95 959 0 Not Applicable
09/07/2026 11 AM PDT 3.94 951 - Not Applicable
09/07/2026 12 PM PDT 3.94 951 0 Not Applicable
09/07/2026 01 PM PDT 3.94 951 0 Not Applicable
09/07/2026 02 PM PDT 3.94 951 0 Not Applicable
09/07/2026 03 PM PDT 3.94 951 0 Not Applicable
09/07/2026 04 PM PDT 3.94 951 0 Not Applicable
09/07/2026 05 PM PDT 3.94 951 0 Not Applicable
09/07/2026 06 PM PDT 3.94 951 0 Not Applicable
09/07/2026 07 PM PDT 3.94 951 0 Not Applicable
09/07/2026 08 PM PDT 3.94 951 0 Not Applicable
09/07/2026 09 PM PDT 3.94 951 0 Not Applicable
09/07/2026 10 PM PDT 3.94 951 0 Not Applicable
09/07/2026 11 PM PDT 3.95 959 + Not Applicable
09/08/2026 12 AM PDT 3.95 959 0 Not Applicable
09/08/2026 01 AM PDT 3.95 959 0 Not Applicable
09/08/2026 02 AM PDT 3.95 959 0 Not Applicable
09/08/2026 03 AM PDT 3.95 959 0 Not Applicable
09/08/2026 04 AM PDT 3.95 959 0 Not Applicable
09/08/2026 05 AM PDT 3.96 966 + Not Applicable
#
# NOTE 1: Stages are rounded to the nearest hundredth (.01) of a foot.
# NOTE 2: Flows are rounded to the nearest (1) cfs.
# NOTE 3: Trends are determined using hourly change in unrounded stage and flow.
# NOTE 4: Maximum Values are determined using unrounded stage and flow.
|